EW5500 Weather Reports


time (UTC)temp
C
wind
direction
speed
KPH
gust
KPH
rain 1hr
cm
rain 24hr
cm
rain mn
cm
humidity
%
barometer
mb
20260906223042 15 67 1.6 8.0 0.00 1.52 1.52 89 1012.3
20260906221541 15 75 3.2 11.3 0.00 1.52 1.52 89 1012.2
20260906220036 15 108 8.0 14.5 0.00 1.52 1.52 89 1012.2
20260906214534 15 61 6.4 11.3 0.00 1.52 1.52 90 1012.5
20260906213033 15 56 6.4 14.5 0.00 1.52 1.52 90 1012.5
20260906211532 15 85 6.4 14.5 0.00 1.52 1.52 90 1012.6
20260906210030 15 86 6.4 17.7 0.00 1.52 1.52 90 1012.6
20260906204528 15 65 4.8 12.9 0.00 1.52 1.52 91 1012.6
20260906203027 15 128 1.6 16.1 0.00 1.52 1.52 91 1012.7
20260906201524 15 74 4.8 16.1 0.00 1.52 1.52 93 1012.8
20260906200021 14 98 3.2 14.5 0.00 1.52 1.52 93 1013.0
20260906194520 14 113 6.4 12.9 0.00 1.52 1.52 93 1013.1
20260906193019 15 334 1.6 11.3 0.00 1.52 1.52 95 1013.2
20260906191517 14 115 3.2 11.3 0.10 1.52 1.52 95 1013.1
20260906190014 14 348 11.3 17.7 0.69 1.52 1.52 96 1013.3
20260906184511 13 11 6.4 12.9 0.69 1.52 1.52 97 1013.9
20260906183011 13 357 0.0 11.3 0.69 1.52 1.52 97 1014.4
20260906181510 13 258 6.4 24.1 0.58 1.42 1.42 96 1015.2
20260906180008 13 257 4.8 8.0 0.00 0.84 0.84 96 1015.2
20260906174508 13 80 4.8 9.7 0.00 0.84 0.84 96 1013.7
20260906173005 13 1 0.0 4.8 0.03 0.84 0.84 96 1014.8
20260906171504 12 356 1.6 11.3 0.05 0.84 0.84 96 1015.0
20260906170003 12 11 0.0 4.8 0.10 0.86 0.84 96 1015.4
20260906164502 12 352 3.2 11.3 0.15 0.86 0.84 96 1015.0
20260906163004 12 326 1.6 19.3 0.13 0.84 0.81 96 1015.0
20260906161604 12 23 3.2 16.1 0.08 0.79 0.79 95 1015.3
20260906160100 13 321 4.8 14.5 0.05 0.79 0.71 95 1015.7
20260906154605 13 283 1.6 12.9 0.00 0.76 0.71 95 1015.7
20260906153100 13 295 1.6 14.5 0.00 0.76 0.71 95 1015.2
20260906151558 13 319 3.2 6.4 0.00 0.76 0.71 95 1015.3
20260906150105 13 347 3.2 11.3 0.00 0.81 0.71 95 1015.0
20260906144554 13 297 3.2 12.9 0.00 0.81 0.71 96 1014.9
20260906143102 13 7 4.8 11.3 0.00 0.81 0.71 96 1015.0
20260906141559 12 325 3.2 9.7 0.00 0.81 0.71 96 1015.1
20260906140058 12 58 3.2 11.3 0.03 0.81 0.71 97 1015.2
20260906134549 12 255 4.8 11.3 0.03 0.81 0.71 97 1015.6
20260906133049 12 262 4.8 11.3 0.03 0.81 0.71 97 1015.7
20260906131555 12 91 0.0 0.0 0.03 0.81 0.71 97 1015.4
20260906130054 12 91 0.0 9.7 0.00 0.79 0.69 97 1015.5
20260906124547 12 84 6.4 16.1 0.00 0.79 0.69 97 1015.2
20260906123049 12 68 6.4 17.7 0.00 0.79 0.69 97 1015.0
20260906121544 12 72 9.7 17.7 0.00 0.79 0.69 97 1015.1
20260906120040 12 62 6.4 12.9 0.00 0.79 0.69 97 1015.3
20260906114547 12 58 6.4 11.3 0.03 0.79 0.69 97 1015.2
20260906113037 12 89 3.2 6.4 0.05 0.79 0.69 97 1015.5
20260906111543 12 77 1.6 6.4 0.05 0.79 0.69 97 1015.8
20260906110032 12 11 1.6 3.2 0.08 0.79 0.69 96 1016.3
20260906104541 12 49 0.0 3.2 0.10 0.79 0.66 96 1017.0
20260906103044 12 336 0.0 1.6 0.05 0.71 0.61 96 1017.3
20260906101535 12 356 1.6 6.4 0.05 0.71 0.61 96 1017.1
20260906100030 12 26 0.0 4.8 0.05 0.71 0.61 96 1017.2
20260906094541 12 302 0.0 6.4 0.05 0.69 0.56 96 1017.3
20260906093037 12 4 1.6 4.8 0.05 0.69 0.56 96 1017.2
20260906091535 12 265 0.0 4.8 0.05 0.69 0.56 96 1017.0
20260906090026 12 11 3.2 6.4 0.05 0.66 0.53 95 1016.9
20260906084527 12 342 0.0 6.4 0.15 0.64 0.51 95 1017.3
20260906083024 12 288 4.8 14.5 0.23 0.64 0.51 96 1017.2
20260906081523 12 243 0.0 8.0 0.23 0.64 0.51 96 1017.5
20260906080022 12 255 0.0 4.8 0.23 0.61 0.48 95 1017.8
20260906074523 12 143 0.0 6.4 0.25 0.48 0.36 95 1018.7
20260906073023 12 246 0.0 4.8 0.30 0.43 0.30 95 1018.7
20260906071520 12 205 0.0 12.9 0.30 0.43 0.30 95 1017.8
20260906070022 12 349 4.8 9.7 0.23 0.36 0.23 94 1017.4
20260906064517 13 243 1.6 9.7 0.10 0.23 0.10 93 1019.4
20260906063014 12 92 4.8 9.7 0.00 0.13 0.00 92 1018.9
20260906061511 12 40 0.0 8.0 0.00 0.13 0.00 91 1016.7
20260906060005 12 345 4.8 14.5 0.00 0.13 0.13 90 1016.0
20260906054505 13 172 0.0 1.6 0.00 0.13 0.13 90 1017.1
20260906053005 13 172 0.0 0.0 0.00 0.13 0.13 89 1018.1
20260906051503 13 172 0.0 1.6 0.00 0.13 0.13 88 1017.9
20260906050106 13 32 0.0 3.2 0.00 0.13 0.13 87 1017.4
20260906044602 13 307 1.6 6.4 0.00 0.13 0.13 87 1017.2
20260906043058 13 232 1.6 6.4 0.00 0.13 0.13 86 1016.7
20260906041557 13 312 1.6 6.4 0.00 0.13 0.13 87 1016.7
20260906040103 12 290 1.6 9.7 0.00 0.13 0.13 86 1016.8
20260906034556 12 228 0.0 4.8 0.00 0.13 0.13 86 1016.6
20260906033106 13 221 0.0 6.4 0.00 0.13 0.13 85 1016.5
20260906031612 13 299 3.2 8.0 0.00 0.13 0.13 82 1016.6
20260906030055 13 295 1.6 6.4 0.00 0.13 0.13 82 1016.5
20260906024605 13 309 0.0 3.2 0.00 0.13 0.13 82 1016.4
20260906023100 14 284 0.0 0.0 0.00 0.13 0.13 82 1016.3
20260906021552 15 300 0.0 1.6 0.00 0.13 0.13 79 1015.8
20260906020052 16 280 0.0 0.0 0.00 0.13 0.13 77 1015.9
20260906014554 16 280 0.0 0.0 0.00 0.13 0.13 73 1015.7
20260906013052 17 280 0.0 1.6 0.00 0.13 0.13 70 1015.7
20260906011551 17 311 0.0 3.2 0.00 0.13 0.13 68 1015.8
20260906010052 18 294 0.0 4.8 0.00 0.13 0.13 64 1015.9
20260906004550 19 327 0.0 8.0 0.00 0.13 0.13 63 1015.8
20260906003049 19 246 1.6 9.7 0.00 0.13 0.13 63 1015.8
20260906001547 19 328 3.2 8.0 0.00 0.13 0.13 63 1015.8
20260906000055 19 301 1.6 8.0 0.00 0.13 0.13 63 1015.9
20260905234550 18 349 3.2 11.3 0.00 0.13 0.13 65 1015.8
20260905233043 18 316 3.2 9.7 0.00 0.13 0.13 67 1015.8
20260905231541 18 288 1.6 11.3 0.00 0.13 0.13 69 1015.7
20260905230039 17 326 3.2 12.9 0.00 0.13 0.13 73 1015.7
20260905224539 17 241 0.0 6.4 0.00 0.13 0.13 75 1015.7